Wind_Speed
33 33 37 34 34 35 34 33 31 30 29 28 26 26 25 26 29 28 26 24 23 24 23 23 22 21 20 20 20 20 21 15 21 20 20 25 31 30 31 25 21 21 22 24 22
40 36 35 38 42 39 38 36 34 33 32 32 31 30 30 28 31 30 27 26 27 28 28 27 26 24 24 23 23 23 21 23 31 29 17 28 33 36 27 27 24 26 25 23 23
41 42 41 37 39 41 43 41 39 37 35 35 35 35 33 32 34 31 28 30 29 30 32 30 30 29 28 28 26 26 21 28 29 31 28 37 36 35 28 28 26 27 25 25 24
42 41 42 42 45 45 42 43 44 43 39 39 38 37 36 35 38 34 31 34 32 30 30 29 28 28 29 30 30 33 27 31 31 35 37 38 39 37 34 27 25 26 28 28 27
45 45 49 48 47 43 41 42 41 42 42 40 41 40 39 37 40 38 34 34 33 32 31 29 30 30 28 29 35 35 35 36 35 36 37 40 46 44 37 30 24 28 30 30 29
46 47 46 44 45 43 41 42 43 43 45 43 42 38 37 34 40 36 30 31 29 31 32 33 33 32 32 35 38 40 40 37 40 37 33 40 44 46 46 35 30 30 30 29 30
42 45 45 44 43 42 42 41 43 43 43 46 42 40 33 28 33 32 29 28 28 30 31 35 33 35 37 36 40 40 41 39 39 37 39 36 42 48 45 36 32 33 31 31 30
46 44 43 42 41 41 39 33 33 42 37 40 41 41 29 33 34 36 37 33 33 33 36 40 36 38 37 36 39 39 41 39 33 38 38 42 42 44 44 36 33 36 33 31 29
50 50 45 42 44 44 41 38 34 35 38 38 37 39 31 35 41 41 39 40 37 34 34 37 38 34 35 36 35 37 41 39 36 33 35 41 41 36 43 35 31 36 31 31 31
56 53 50 48 47 46 45 40 39 37 41 38 41 42 37 34 37 38 37 38 34 34 31 31 31 30 28 29 22 26 34 35 36 29 27 36 43 34 40 36 32 30 29 31 31
56 54 53 52 50 52 50 49 43 43 44 37 40 40 39 33 32 31 30 31 31 32 30 31 30 25 26 25 23 26 30 33 29 31 36 37 33 36 35 36 29 28 27 28 30
68 58 57 56 53 53 54 55 49 44 46 43 42 46 33 34 36 29 35 32 33 29 32 30 22 24 27 27 25 23 26 27 28 26 36 37 37 36 36 35 33 27 28 31 31
71 73 72 69 63 58 57 56 52 48 52 49 50 46 39 42 42 30 37 33 32 32 29 30 22 29 28 29 28 24 25 24 30 28 37 38 42 38 39 41 40 33 30 35 32
67 70 72 70 71 69 67 67 65 60 59 61 51 52 48 47 52 44 43 45 42 38 31 37 24 30 31 30 29 30 27 30 31 29 36 41 47 43 36 42 44 41 35 34 36
65 66 65 63 70 76 73 73 72 71 69 59 64 59 59 56 58 54 47 48 48 42 41 39 34 33 36 34 32 38 32 36 35 32 34 37 50 45 39 39 42 38 39 38 37
64 63 62 65 66 64 64 67 71 69 71 63 62 66 69 63 55 54 51 49 47 44 46 49 41 42 39 37 39 40 39 37 41 37 46 41 38 41 42 37 39 41 40 42 44
72 65 63 59 59 59 60 64 62 66 63 58 49 53 69 67 67 64 61 57 52 51 47 43 46 45 45 47 46 43 44 44 48 46 50 38 38 43 40 37 36 45 44 45 47
66 69 67 61 59 57 50 52 60 64 63 47 40 45 55 48 47 35 42 47 47 49 54 52 51 45 43 46 46 49 48 53 56 50 47 46 51 46 45 47 42 42 40 43 45
56 58 58 65 70 67 60 58 56 53 53 48 40 46 47 45 42 40 37 36 34 40 48 53 60 52 50 47 49 51 53 51 54 53 53 58 55 51 50 45 45 43 43 45 48
56 54 49 50 51 53 62 73 62 54 56 51 48 43 44 43 45 44 43 39 36 35 40 44 53 51 50 51 55 56 49 45 53 59 55 58 57 52 48 50 49 49 49 50 52
56 55 51 52 53 54 57 60 59 57 58 59 57 56 53 51 51 48 53 47 47 43 37 41 49 50 39 45 52 53 58 58 59 57 60 63 62 57 52 50 51 55 57 60 60
54 52 51 51 52 52 50 47 48 48 49 51 54 55 55 50 53 56 57 57 46 50 43 43 46 52 46 42 43 50 53 48 55 55 59 60 57 58 59 61 61 57 54 54 55
50 48 49 52 54 53 50 49 51 49 51 51 55 53 54 55 55 53 55 53 53 53 46 42 40 54 45 43 46 50 53 56 61 64 64 58 59 54 56 58 59 66 62 58 58
50 49 51 54 55 54 54 53 53 53 55 56 57 56 56 58 56 59 54 49 51 50 53 55 56 49 46 52 54 55 60 61 67 65 68 71 67 57 59 57 56 56 66 66 64
49 48 51 53 54 54 54 55 56 56 57 58 58 57 54 56 58 58 57 55 51 57 63 65 67 66 58 56 54 62 59 64 66 73 79 69 76 51 53 54 52 57 61 61 60
42 44 46 47 47 49 49 49 50 51 53 55 54 53 52 51 47 48 50 52 55 57 58 63 62 67 69 70 67 60 57 54 56 49 59 70 59 48 51 48 45 50 48 47 53
32 34 38 38 39 40 39 39 38 35 38 46 48 48 50 49 47 48 45 42 50 55 61 64 62 61 71 63 63 72 64 64 66 57 50 54 54 47 42 40 38 37 41 47 47
Wind_Direction
260 258 258 257 265 259 261 261 259 257 256 255 256 259 256 258 259 265 265 263 263 263 260 260 257 257 257 256 250 241 239 205 197 209 237 256 259 262 261 264 270 275 273 278 280
254 254 255 255 259 268 268 263 260 260 258 257 258 258 261 258 260 263 261 263 265 261 257 256 256 254 254 255 251 246 234 212 218 231 247 255 268 271 260 264 270 277 278 278 281
257 262 261 259 260 265 266 262 260 258 257 256 259 261 261 262 265 264 266 265 261 260 258 255 253 251 252 251 255 251 237 232 228 240 239 243 257 266 262 265 270 280 284 277 280
256 256 258 261 261 265 261 257 258 258 256 258 258 265 264 263 267 267 267 263 263 257 250 252 250 254 252 253 252 252 238 241 234 239 242 249 262 273 267 265 272 276 275 276 277
258 258 261 263 260 260 260 260 254 257 258 258 259 260 263 269 267 267 264 263 260 250 249 251 251 252 258 263 255 255 247 242 241 240 246 264 268 275 272 271 268 267 271 275 277
260 261 261 258 259 254 255 259 257 255 259 261 262 261 262 267 267 263 258 262 257 251 250 254 258 264 264 257 256 252 248 244 250 251 247 247 260 269 275 279 278 269 268 272 272
259 260 258 255 257 254 257 262 258 259 260 259 261 261 261 256 261 268 263 261 260 259 260 262 265 267 269 260 254 256 255 248 257 255 254 251 253 266 273 275 275 273 267 266 269
260 259 256 258 258 254 261 261 266 265 264 259 259 260 253 257 265 271 268 266 269 266 269 264 268 270 270 261 253 253 254 252 254 258 259 259 255 263 266 266 264 265 270 269 266
258 258 254 256 263 259 262 260 263 270 261 256 254 255 254 255 269 277 266 265 271 267 272 264 265 264 263 256 253 254 256 258 252 260 259 258 259 253 261 259 257 265 265 264 263
255 253 251 260 258 258 259 263 262 267 263 258 256 261 257 259 266 272 266 268 266 268 267 267 259 259 253 253 254 254 254 247 246 244 257 264 260 253 259 267 263 258 258 261 266
248 250 252 259 257 256 260 260 259 262 260 263 268 263 271 266 264 264 271 264 265 272 267 263 261 259 258 255 257 260 255 253 252 247 241 249 260 261 262 264 262 263 262 261 263
251 245 247 253 254 256 259 263 257 257 259 262 268 270 268 268 261 263 269 270 270 270 266 263 259 261 253 251 256 266 266 264 254 242 249 253 253 263 267 274 271 261 265 271 270
250 253 252 254 251 250 253 256 254 256 267 265 268 269 266 264 270 266 268 272 275 268 264 265 260 256 254 255 260 263 262 256 257 242 248 251 252 255 266 271 271 264 264 265 270
256 255 256 256 250 248 251 252 255 255 266 275 262 263 262 266 269 276 271 271 267 269 267 260 257 258 255 252 259 259 261 254 249 244 246 251 257 256 256 266 274 276 273 268 271
263 258 257 258 256 253 255 248 254 258 263 269 270 264 260 262 264 271 267 265 271 267 261 263 261 255 256 256 253 261 252 257 254 253 250 237 255 267 260 260 267 275 274 268 266
264 263 262 262 260 259 260 259 260 259 260 262 261 266 271 271 267 266 266 264 264 262 260 263 258 256 263 263 255 254 255 254 257 254 252 248 249 262 268 276 274 273 275 276 277
266 264 265 263 264 261 259 258 257 258 258 260 260 261 262 264 264 264 261 263 262 262 260 259 258 255 256 256 259 257 257 256 255 251 259 263 259 261 266 266 265 268 274 277 281
261 259 254 259 258 256 255 255 259 261 261 254 251 253 261 264 268 268 264 258 258 258 260 258 255 257 261 263 262 259 260 256 253 255 258 259 258 260 262 263 266 267 266 269 277
257 258 256 256 257 256 251 245 260 262 261 253 238 248 257 259 256 258 257 254 255 255 259 259 259 253 253 251 251 256 251 259 266 259 261 257 260 262 269 276 277 272 262 267 270
256 254 252 252 253 255 257 261 255 256 258 258 256 246 248 254 256 258 258 252 234 239 258 263 267 262 258 250 253 253 262 253 253 257 258 261 267 268 266 267 267 266 266 265 268
254 254 251 250 249 249 252 261 260 255 256 259 260 260 256 253 255 255 261 258 260 258 237 253 261 267 251 254 257 252 256 255 256 255 259 263 262 264 264 263 259 256 261 266 270
249 249 248 248 250 251 251 252 255 255 257 261 263 264 265 261 260 259 259 261 258 261 253 256 244 245 258 253 252 242 247 251 255 256 254 262 262 262 264 265 269 269 266 264 265
249 247 245 248 250 252 253 253 253 252 255 256 260 263 264 264 262 258 257 259 258 257 259 248 254 248 248 242 251 249 237 243 243 250 256 245 262 259 263 266 265 266 261 259 261
248 248 249 253 255 258 259 257 257 256 257 260 260 259 260 261 261 264 260 257 251 247 241 236 239 239 242 244 244 248 239 242 246 250 256 262 263 259 263 266 266 269 270 268 270
253 253 253 255 257 257 258 257 257 256 258 259 260 260 260 261 260 260 263 255 247 244 242 242 238 244 246 243 247 247 242 238 245 249 255 260 259 254 259 263 258 256 264 269 271
258 257 255 255 256 257 257 259 259 258 257 255 258 258 257 256 260 262 255 252 250 240 237 248 253 246 244 236 238 241 233 225 233 241 239 251 254 259 256 253 252 256 259 266 275
258 257 257 254 254 254 256 255 251 243 240 248 246 247 251 253 247 246 246 248 250 241 239 244 244 249 251 244 244 247 238 244 254 256 251 249 243 238 242 250 255 260 269 273 274
Height
5815 5816 5817 5819 5820 5821 5821 5823 5824 5825 5826 5829 5830 5831 5832 5834 5833 5835 5837 5838 5838 5838 5839 5839 5839 5840 5841 5841 5842 5843 5847 5849 5845 5842 5840 5843 5844 5847 5845 5849 5849 5851 5850 5848 5848
5807 5809 5810 5811 5813 5814 5814 5816 5816 5818 5819 5821 5823 5824 5825 5827 5826 5829 5833 5832 5832 5832 5833 5834 5834 5835 5836 5837 5838 5839 5841 5841 5841 5839 5838 5840 5839 5840 5844 5843 5845 5845 5846 5844 5844
5798 5799 5801 5802 5804 5805 5806 5807 5808 5810 5811 5812 5815 5817 5816 5820 5820 5823 5826 5825 5824 5826 5826 5828 5828 5829 5831 5831 5833 5834 5837 5834 5837 5834 5833 5833 5834 5834 5835 5838 5841 5841 5842 5841 5840
5789 5790 5792 5793 5794 5795 5796 5797 5799 5802 5802 5804 5807 5810 5810 5812 5814 5816 5818 5817 5817 5818 5820 5821 5822 5822 5824 5826 5827 5826 5831 5828 5831 5830 5828 5826 5826 5829 5831 5837 5838 5836 5835 5835 5835
5780 5781 5783 5784 5785 5786 5788 5788 5788 5792 5794 5795 5798 5799 5803 5805 5804 5807 5809 5809 5810 5811 5812 5814 5815 5815 5819 5820 5817 5820 5823 5822 5824 5825 5827 5823 5817 5817 5823 5828 5834 5831 5830 5830 5830
5770 5771 5772 5773 5775 5776 5777 5777 5779 5782 5785 5786 5789 5791 5795 5800 5793 5798 5801 5800 5802 5804 5805 5806 5807 5810 5811 5810 5810 5810 5812 5817 5815 5819 5823 5823 5814 5813 5812 5819 5823 5824 5824 5824 5824
5758 5761 5762 5763 5765 5767 5768 5769 5772 5775 5776 5778 5780 5782 5785 5791 5788 5791 5793 5795 5795 5797 5798 5797 5801 5800 5800 5802 5800 5802 5803 5808 5809 5812 5813 5816 5813 5807 5808 5814 5814 5813 5816 5817 5818
5748 5750 5753 5755 5755 5758 5761 5762 5764 5768 5767 5766 5770 5773 5781 5778 5782 5783 5786 5787 5787 5788 5789 5789 5791 5790 5790 5791 5792 5794 5794 5798 5805 5802 5805 5804 5807 5802 5802 5806 5807 5805 5808 5809 5810
5736 5739 5741 5745 5747 5750 5752 5753 5755 5759 5759 5757 5762 5762 5775 5773 5772 5775 5776 5777 5778 5779 5779 5779 5781 5781 5781 5783 5784 5787 5787 5789 5794 5794 5795 5792 5795 5800 5791 5798 5802 5800 5801 5801 5802
5728 5730 5731 5733 5737 5740 5742 5744 5745 5750 5748 5751 5754 5754 5762 5765 5767 5765 5768 5768 5770 5771 5772 5771 5772 5773 5775 5774 5779 5778 5776 5778 5780 5786 5784 5782 5783 5790 5785 5787 5793 5793 5795 5795 5796
5717 5718 5720 5721 5724 5728 5731 5734 5737 5738 5741 5742 5744 5747 5751 5757 5757 5758 5760 5761 5762 5764 5764 5762 5766 5769 5768 5768 5771 5770 5770 5770 5775 5778 5773 5773 5772 5775 5779 5779 5785 5786 5787 5787 5787
5707 5708 5710 5713 5714 5716 5719 5722 5724 5727 5731 5735 5735 5736 5747 5743 5742 5753 5750 5754 5754 5757 5756 5757 5760 5762 5760 5762 5764 5765 5765 5767 5768 5770 5765 5765 5765 5765 5767 5769 5774 5779 5781 5781 5781
5691 5695 5698 5701 5704 5707 5708 5710 5714 5712 5714 5725 5728 5729 5735 5733 5733 5744 5742 5746 5748 5747 5750 5750 5756 5751 5754 5756 5757 5759 5759 5761 5760 5764 5760 5758 5757 5763 5761 5759 5760 5767 5771 5771 5774
5676 5680 5683 5687 5692 5692 5697 5699 5703 5703 5704 5709 5722 5718 5722 5724 5721 5732 5734 5735 5735 5739 5744 5738 5748 5745 5745 5747 5750 5751 5753 5752 5751 5755 5754 5754 5747 5749 5755 5751 5751 5755 5761 5764 5763
5662 5666 5668 5671 5673 5678 5684 5686 5689 5693 5696 5703 5695 5702 5705 5713 5716 5716 5722 5724 5725 5730 5730 5733 5738 5739 5736 5739 5743 5739 5745 5743 5744 5746 5746 5748 5739 5742 5749 5747 5747 5750 5750 5751 5753
5648 5651 5653 5656 5659 5663 5667 5670 5676 5683 5683 5689 5686 5683 5686 5696 5703 5705 5706 5711 5713 5715 5717 5719 5727 5728 5732 5732 5732 5731 5732 5735 5734 5736 5729 5734 5740 5737 5736 5741 5740 5739 5739 5740 5742
5633 5637 5640 5643 5645 5650 5651 5655 5663 5668 5677 5678 5674 5668 5670 5677 5682 5688 5693 5697 5702 5702 5705 5710 5712 5717 5718 5719 5719 5723 5724 5723 5721 5722 5719 5730 5730 5729 5731 5731 5732 5728 5729 5730 5732
5617 5622 5626 5630 5632 5635 5636 5639 5648 5661 5663 5666 5658 5657 5662 5665 5667 5672 5678 5683 5685 5689 5688 5692 5699 5704 5711 5708 5712 5712 5712 5709 5705 5710 5716 5716 5709 5717 5719 5719 5723 5722 5721 5720 5722
5598 5602 5610 5612 5613 5617 5621 5625 5643 5651 5648 5643 5648 5649 5656 5657 5657 5660 5665 5668 5676 5676 5673 5676 5679 5689 5692 5696 5696 5697 5696 5702 5697 5701 5698 5701 5702 5706 5707 5709 5711 5711 5709 5709 5711
5583 5588 5596 5593 5594 5595 5597 5615 5637 5640 5630 5628 5633 5642 5645 5648 5648 5649 5651 5656 5659 5663 5665 5665 5666 5676 5682 5680 5681 5681 5694 5688 5683 5683 5684 5691 5690 5696 5700 5700 5699 5697 5699 5697 5699
5568 5575 5581 5579 5580 5579 5585 5601 5612 5620 5613 5612 5617 5619 5631 5638 5634 5639 5636 5647 5650 5656 5653 5655 5655 5655 5667 5670 5672 5672 5670 5671 5671 5672 5671 5675 5680 5687 5689 5689 5688 5688 5687 5687 5686
5552 5562 5568 5565 5567 5570 5579 5590 5596 5600 5597 5598 5599 5604 5612 5618 5619 5622 5628 5627 5640 5634 5646 5643 5640 5641 5648 5656 5660 5657 5657 5661 5656 5657 5657 5659 5668 5672 5673 5673 5674 5673 5674 5674 5673
5540 5550 5554 5552 5552 5559 5567 5574 5577 5586 5584 5588 5586 5592 5595 5598 5598 5605 5610 5618 5620 5625 5629 5633 5629 5631 5636 5642 5646 5645 5642 5640 5639 5640 5642 5644 5652 5660 5660 5660 5659 5655 5658 5661 5658
5530 5537 5540 5538 5541 5547 5551 5558 5562 5570 5571 5571 5573 5577 5579 5580 5586 5586 5594 5605 5608 5609 5613 5611 5614 5614 5620 5626 5629 5630 5627 5628 5628 5626 5629 5628 5635 5647 5647 5647 5645 5646 5636 5640 5642
5518 5524 5524 5526 5531 5532 5534 5542 5545 5555 5558 5555 5556 5558 5563 5563 5567 5570 5578 5584 5592 5592 5594 5594 5595 5599 5605 5614 5612 5612 5613 5612 5614 5615 5611 5621 5615 5633 5630 5630 5632 5630 5625 5624 5627
5505 5508 5508 5515 5517 5517 5520 5529 5532 5540 5539 5544 5537 5544 5547 5547 5553 5557 5558 5565 5571 5578 5575 5576 5577 5583 5585 5593 5595 5591 5595 5595 5597 5599 5597 5598 5602 5618 5617 5613 5612 5614 5610 5612 5609
5493 5494 5495 5504 5505 5505 5516 5516 5519 5522 5526 5525 5529 5529 5531 5538 5538 5536 5542 5550 5551 5555 5561 5562 5562 5564 5564 5577 5574 5572 5587 5584 5582 5582 5583 5584 5593 5604 5601 5602 5601 5601 5599 5599 5598